Regional Weather Roundup
Issued by NWS

Home | Current Version | Previous Version | Graphics & Text | Print | Product List | Glossary On
Versions: 1 2 3 4 5 6 7 8 9 10 11 12 13 14 15 16 17 18 19 20 21 22 23 24 25 26 27 28 29 30 31 32 33 34 35 36 37 38 39 40 41 42 43 44 45 46 47 48 49 50
947
ASUS43 KIND 171759
RWRIN

WEATHER ROUNDUP FOR INDIANA
NATIONAL WEATHER SERVICE INDIANAPOLIS IN
100 PM EST SUN DEC 17 2017

NOTE: "FAIR" INDICATES FEW OR NO CLOUDS BELOW 12,000 FEET WITH NO
SIGNIFICANT WEATHER AND/OR OBSTRUCTIONS TO VISIBILITY.

* - STATION DOES NOT REPORT WEATHER SUCH AS PRECIPITATION OR FOG.

+ - STATION NOT QUALITY CONTROLLED BY THE NATIONAL WEATHER SERVICE.
    USE DATA WITH CAUTION...ESPECIALLY DEWPOINT AND RELATIVE
    HUMIDITY OBSERVATIONS.

INZ001>003-010>013-019-020-171900-
NORTHWEST INDIANA

CITY           SKY/WX    TMP DP  RH WIND       PRES   REMARKS
GARY /AIRPORT/ CLOUDY    39  30  70 S7        30.05F WCI  34
KNOX *+        CLOUDY    39  32  75 S8        30.05F WCI  34
MONTICELLO +   DRIZZLE   40  33  75 S9        30.07F WCI  34
6HR MIN TEMP:  33; 6HR MAX TEMP:  41;


$$

LMZ046-743>745-171900-
SOUTHERN LAKE MICHIGAN

STATION/POSITION TIME  TEMP    WIND        PRES    WAVE
                       AIR SEA DIR/SP/G            HT
                 (UTC) (F)     (DEG/KT/KT) (MB)    (FT)
BURNS HARBOR     1740   37     190/  7/  9 1017.6F
MICHIGAN CITY    1730   37     170/  7/ 10   N/A

$$

INZ004-005-014>016-021>024-171900-
NORTH CENTRAL INDIANA

CITY           SKY/WX    TMP DP  RH WIND       PRES   REMARKS
ELKHART        CLOUDY    34  28  80 SE6       30.05F WCI  29
GOSHEN         CLOUDY    35  30  82 SE7       30.06F WCI  29
6HR MIN TEMP:  27; 6HR MAX TEMP:  35;

PERU/GRISSOM   PTSUNNY   41  34  77 SW7       30.07F
6HR MIN TEMP:  33; 6HR MAX TEMP:  41; 6HR PCP: TRACE;

SOUTH BEND     MOSUNNY   34  31  88 SE8       30.05F WCI  27
6HR MIN TEMP:  27; 6HR MAX TEMP:  34;

WARSAW +       CLOUDY    37  32  81 S3        30.07F

$$

INZ006>009-017-018-025>027-171900-
NORTHEAST INDIANA

CITY           SKY/WX    TMP DP  RH WIND       PRES   REMARKS
AUBURN +       MOSUNNY   32  32 100 CALM      30.10F FOG
FORT WAYNE     CLOUDY    33  30  88 CALM      30.10F
6HR MIN TEMP:  26; 6HR MAX TEMP:  33;

KENDALLVILLE + CLOUDY    32  32 100 SE8       30.09F FOG     WCI  25

$$

INZ028-029-035-036-043>045-051>053-171900-
WEST CENTRAL INDIANA

CITY           SKY/WX    TMP DP  RH WIND       PRES   REMARKS
LAFAYETTE      LGT RAIN  40  35  83 CALM      30.08F
6HR MIN TEMP:  36; 6HR MAX TEMP:  40; 6HR PCP:  0.01;

TERRE HAUTE    LGT RAIN  42  37  82 SW8       30.11F
6HR MIN TEMP:  39; 6HR MAX TEMP:  44; 6HR PCP:  0.04;


$$

INZ030>032-037>040-046>048-054>057-064-065-171900-
CENTRAL INDIANA

CITY           SKY/WX    TMP DP  RH WIND       PRES   REMARKS
COLUMBUS       LGT RAIN  39  34  81 CALM      30.14F
INDIANAPOLIS   CLOUDY    42  36  79 SW8       30.10F
6HR MIN TEMP:  37; 6HR MAX TEMP:  43; 6HR PCP:  0.02;

-EAGLE CREEK   LGT RAIN  43  36  76 S7        30.09F
6HR MIN TEMP:  38; 6HR MAX TEMP:  43; 6HR PCP:  0.02;

KOKOMO +       LGT RAIN  40  34  79 SW6       30.09F WCI  36
6HR MIN TEMP:  33; 6HR MAX TEMP:  40; 6HR PCP: TRACE;

MT COMFORT *+  CLOUDY    39  37  93 S6        30.11F WCI  35
SHELBYVILLE    LGT RAIN  41  34  76 S9        30.11F
6HR MIN TEMP:  38; 6HR MAX TEMP:  42; 6HR PCP:  0.01;


$$

INZ033-034-041-042-049-050-058-059-171900-
EAST CENTRAL INDIANA

CITY           SKY/WX    TMP DP  RH WIND       PRES   REMARKS
MUNCIE         CLOUDY    42  32  67 SW9       30.10S
6HR MIN TEMP:  38; 6HR MAX TEMP:  43;

RICHMOND +     CLOUDY    36  34  93 SW6       30.12R WCI  31

$$

INZ060-061-067>069-081>083-085>088-171900-
SOUTHWEST INDIANA

CITY           SKY/WX    TMP DP  RH WIND       PRES   REMARKS
EVANSVILLE     LGT RAIN  45  39  79 S10       30.13F
6HR MIN TEMP:  42; 6HR MAX TEMP:  45; 6HR PCP: TRACE;

HUNTINGBURG +  LGT RAIN  45  35  68 S14       30.12F
6HR MIN TEMP:  41; 6HR MAX TEMP:  45; 6HR PCP: TRACE;


$$

INZ062-063-066-070>080-084-089>092-171900-
SOUTH CENTRAL AND SOUTHEAST INDIANA

CITY           SKY/WX    TMP DP  RH WIND       PRES   REMARKS
BLOOMINGTON    LGT RAIN  43  35  73 S5        30.11F
6HR MIN TEMP:  41; 6HR MAX TEMP:  44; 6HR PCP:  0.01;

SEYMOUR +      CLOUDY    46  32  57 S8        30.14F

$$





USA.gov is the U.S. government's official web portal to all federal, state and local government web resources and services.